2018-102P (43844 NORAD) Tracking and Keplerian Element Data

This shows tracking and keplerian element data for the satellite.

Feedback or suggestion? Click here.




ElementValue
Catalog43844
Name2018-102P
Epoch Orbit439
Epoch Day5.9991337
Epoch Year2019
RAAN83.3899
Inclination97.6467
Eccentricity0.0008076
Argument of Perigee282.6957
Mean Anonmoly203.0583
Mean Motion15.09870164
Decay Rate6.25E-06
L11 43844U 18102P 19005.99913370 .00000625 00000-0 42581-4 0 9998
L22 43844 97.6467 83.3899 0008076 282.6957 203.0583 15.09870164 4392

Live tracking and technical data element details for 2018-102P (NORAD 43844). 2018-102P can be tracked NOW for your location showing map with azimuth and elevation plus other details from your city location.

Track the satellite on the map from your city or location and see movement details for azimuth, elevation, latitude, longitude, range, height, and movement on the map or in text.







IsCatalogInMostPopularTable: catalog: 43844, numindb: 40
Update: records affected: 1



GetName: 43844 2018-102P

Hit Count: updated at: Wed, 23 Jan 2019 03:10:14 GMT